Weather History for Camden, AR

Change the Weather History Date:

Thursday, April 24, 2014

  Actual Average Record
Temperature  
Mean Temperature 66 °F -  
Max Temperature 80 °F 77 °F 92 °F (1954)
Min Temperature 51 °F 52 °F 39 °F (1982)
Growing Degree Days 16 (Base 50)    
Moisture  
Dew Point 56 °F    
Average Humidity 74    
Maximum Humidity 94    
Minimum Humidity 54    
Precipitation  
Precipitation 0.00 in - - ()
Sea Level Pressure  
Sea Level Pressure 29.83 in    
Wind  
Wind Speed - (North)    
Max Wind Speed -    
Max Gust Speed -    
Visibility 9 miles    
Events Rain    
Averages and records for this station are not official NWS values.
T = Trace of Precipitation, MM = Missing Value Source: NWS Daily Summary

Daily Weather History Graph

Daily Weather History Graph

Search for Another Location

Airport:

Trip Planner

Search our weather history database for the weather conditions in past years. The results will help you decide how hot, cold, wet, or windy it might be!

Date:

Astronomy

Apr. 24, 2014 Rise Set
Actual Time 6:29 AM CDT 7:48 PM CDT
Civil Twilight 6:03 AM CDT 8:15 PM CDT
Nautical Twilight 5:32 AM CDT 8:46 PM CDT
Astronomical Twilight 5:00 AM CDT 9:18 PM CDT
Moon 3:26 AM CDT (4/24) 3:18 PM CDT (4/24)
Length of Visible Light 14h 11m
Length of Day
13h 18m
Waning Crescent, 24% of the Moon is Illuminated
Apr 24
Waning Crescent
Apr 29
New
May 6
First Quarter
May 14
Full
May 21
Last Quarter

Hourly Weather History & Observations

Time (CDT) Temp. Heat Index Dew Point Humidity Pressure Visibility Wind Dir Wind Speed Gust Speed Precip Events Conditions
12:15 AM 59.0 °F - 46.4 °F 63% 29.88 in 10.0 mi North - - N/A   Clear
12:35 AM 59.0 °F - 46.4 °F 63% 29.88 in 10.0 mi North - - N/A   Clear
12:55 AM 57.2 °F - 48.2 °F 72% 29.88 in 10.0 mi North - - N/A   Clear
1:15 AM 55.4 °F - 48.2 °F 77% 29.87 in 10.0 mi North - - N/A   Clear
1:35 AM 55.4 °F - 46.4 °F 72% 29.86 in 10.0 mi North - - N/A   Clear
1:55 AM 57.2 °F - 46.4 °F 67% 29.86 in 10.0 mi North - - N/A   Clear
2:15 AM 55.4 °F - 46.4 °F 72% 29.86 in 10.0 mi North - - N/A   Clear
2:35 AM 53.6 °F - 48.2 °F 82% 29.86 in 10.0 mi North - - N/A   Clear
2:55 AM 53.6 °F - 46.4 °F 77% 29.86 in 10.0 mi North - - N/A   Clear
3:15 AM 53.6 °F - 46.4 °F 77% 29.87 in 10.0 mi North - - N/A   Clear
3:35 AM 51.8 °F - 48.2 °F 88% 29.87 in 10.0 mi North - - N/A   Clear
3:55 AM 53.6 °F - 48.2 °F 82% 29.89 in 7.0 mi North - - N/A   Clear
4:15 AM 53.6 °F - 48.2 °F 82% 29.88 in 10.0 mi North - - N/A   Partly Cloudy
4:35 AM 51.8 °F - 48.2 °F 88% 29.88 in 10.0 mi North - - N/A   Clear
4:55 AM 51.8 °F - 48.2 °F 88% 29.87 in 10.0 mi North - - N/A   Clear
5:15 AM 51.8 °F - 48.2 °F 88% 29.87 in 10.0 mi North - - N/A   Clear
5:35 AM 53.6 °F - 48.2 °F 82% 29.88 in 10.0 mi North - - N/A   Clear
5:55 AM 51.8 °F - 48.2 °F 88% 29.88 in 10.0 mi North - - N/A   Clear
6:15 AM 53.6 °F - 48.2 °F 82% 29.89 in 10.0 mi North - - N/A   Clear
6:35 AM 53.6 °F - 48.2 °F 82% 29.89 in 10.0 mi North - - N/A   Clear
6:55 AM 51.8 °F - 48.2 °F 88% 29.89 in 10.0 mi North - - N/A   Clear
7:15 AM 53.6 °F - 48.2 °F 82% 29.88 in 10.0 mi North - - N/A   Clear
7:35 AM 55.4 °F - 48.2 °F 77% 29.87 in 10.0 mi North - - N/A   Clear
7:55 AM 59.0 °F - 50.0 °F 72% 29.88 in 10.0 mi North - - N/A   Clear
8:15 AM 59.0 °F - 50.0 °F 72% 29.88 in 10.0 mi North - - N/A   Clear
8:35 AM 59.0 °F - 50.0 °F 72% 29.88 in 10.0 mi North - - N/A   Clear
8:55 AM 62.6 °F - 53.6 °F 72% 29.86 in 10.0 mi North - - N/A   Clear
9:15 AM 64.4 °F - 55.4 °F 73% 29.87 in 10.0 mi North - - N/A   Clear
9:35 AM 68.0 °F - 55.4 °F 64% 29.87 in 10.0 mi North - - N/A   Clear
9:55 AM 69.8 °F - 57.2 °F 64% 29.88 in 10.0 mi North - - N/A   Clear
10:15 AM 71.6 °F - 59.0 °F 64% 29.87 in 10.0 mi North - - N/A   Clear
10:55 AM 75.2 °F - 59.0 °F 57% 29.86 in 10.0 mi North - - N/A   Mostly Cloudy
11:15 AM 73.4 °F - 59.0 °F 61% 29.86 in 9.0 mi North - - N/A   Mostly Cloudy
11:35 AM 73.4 °F - 59.0 °F 61% 29.86 in 10.0 mi North - - N/A   Mostly Cloudy
11:55 AM 77.0 °F - 62.6 °F 61% 29.86 in 10.0 mi North - - N/A   Partly Cloudy
12:15 PM 75.2 °F - 60.8 °F 61% 29.84 in 10.0 mi North - - N/A   Mostly Cloudy
12:35 PM 77.0 °F - 62.6 °F 61% 29.82 in 10.0 mi North - - N/A   Mostly Cloudy
12:55 PM 78.8 °F - 62.6 °F 57% 29.81 in 9.0 mi North - - N/A   Partly Cloudy
1:15 PM 80.6 °F 81.8 °F 62.6 °F 54% 29.80 in 10.0 mi North - - N/A   Partly Cloudy
1:35 PM 80.6 °F 81.8 °F 62.6 °F 54% 29.79 in 9.0 mi North - - N/A   Scattered Clouds
1:55 PM 77.0 °F - 62.6 °F 61% 29.78 in 10.0 mi North - - N/A   Mostly Cloudy
2:15 PM 75.2 °F - 62.6 °F 65% 29.78 in 8.0 mi North - - N/A Rain Light Rain
2:35 PM 73.4 °F - 62.6 °F 69% 29.77 in 9.0 mi North - - N/A   Overcast
2:55 PM 73.4 °F - 64.4 °F 73% 29.76 in 7.0 mi North - - N/A Rain Light Rain
3:15 PM 71.6 °F - 64.4 °F 78% 29.76 in 5.0 mi North - - N/A Rain Light Rain
3:35 PM 71.6 °F - 64.4 °F 78% 29.76 in 7.0 mi North - - N/A   Overcast
3:55 PM 71.6 °F - 64.4 °F 78% 29.76 in 8.0 mi North - - N/A   Overcast
4:15 PM 69.8 °F - 64.4 °F 83% 29.77 in 1.2 mi North - - N/A Rain Light Rain
4:35 PM 68.0 °F - 66.2 °F 94% 29.76 in 3.0 mi North - - N/A   Overcast
4:55 PM 71.6 °F - 66.2 °F 83% 29.75 in 7.0 mi North - - N/A   Mostly Cloudy
5:15 PM 73.4 °F - 66.2 °F 78% 29.74 in 9.0 mi North - - N/A   Mostly Cloudy
5:35 PM 73.4 °F - 66.2 °F 78% 29.75 in 10.0 mi North - - N/A   Clear
5:55 PM 73.4 °F - 66.2 °F 78% 29.75 in 10.0 mi North - - N/A   Clear
6:15 PM 73.4 °F - 64.4 °F 73% 29.74 in 10.0 mi North - - N/A   Clear
6:35 PM 73.4 °F - 64.4 °F 73% 29.74 in 9.0 mi North - - N/A   Clear
6:55 PM 73.4 °F - 64.4 °F 73% 29.74 in 9.0 mi North - - N/A   Clear
7:15 PM 71.6 °F - 66.2 °F 83% 29.73 in 9.0 mi North - - N/A   Clear
7:35 PM 71.6 °F - 66.2 °F 83% 29.74 in 8.0 mi North - - N/A   Clear
7:55 PM 71.6 °F - 66.2 °F 83% 29.75 in 9.0 mi North - - N/A   Partly Cloudy
8:15 PM 71.6 °F - 59.0 °F 64% 29.80 in 10.0 mi North - - N/A   Scattered Clouds
8:35 PM 68.0 °F - 55.4 °F 64% 29.81 in 10.0 mi North - - N/A   Scattered Clouds
8:55 PM 66.2 °F - 53.6 °F 64% 29.83 in 10.0 mi North - - N/A   Clear
9:15 PM 66.2 °F - 53.6 °F 64% 29.84 in 10.0 mi North - - N/A   Partly Cloudy
9:35 PM 66.2 °F - 53.6 °F 64% 29.85 in 10.0 mi North - - N/A   Clear
9:55 PM 62.6 °F - 53.6 °F 72% 29.86 in 10.0 mi North - - N/A   Clear
10:15 PM 59.0 °F - 55.4 °F 88% 29.87 in 10.0 mi North - - N/A   Clear
10:35 PM 59.0 °F - 55.4 °F 88% 29.87 in 10.0 mi North - - N/A   Clear
10:55 PM 57.2 °F - 55.4 °F 94% 29.88 in 10.0 mi North - - N/A   Clear
11:15 PM 59.0 °F - 53.6 °F 82% 29.88 in 10.0 mi North - - N/A   Clear
11:35 PM 59.0 °F - 55.4 °F 88% 29.89 in 10.0 mi North - - N/A   Clear
11:55 PM 60.8 °F - 53.6 °F 77% 29.90 in 10.0 mi North - - N/A   Clear